Current weather by "City, St" or "zip code"  
 
Advertise Here

Current Conditions: Olney-Noble Airport, IL

Fair


61.0 F

Last Updated on May 12 2021, 12:55 pm CDT
Humidity: 33%
Wind Speed: NE 12.7 G 16.1 mph
Barometer 30.40 in
Dewpoint: 31.5 F
Visibility: 10.00 mi
Precip: --
Heat Index: NA
Wind Chill: 59 F
Current conditions at:

Olney-Noble Airport, IL (KOLY)

Lat: 38.72133 Lon: 88.1799

Local Radar Image active severe weather and emergency alerts image image weather storm and storm spotter reports image weather observation monitoring service image
Local
Radar
Active
Alerts
Storm Reports Obs
Monitoring

Sign-up For Email & Text Message Weather Alert Notification Services


Advertise Here

Observation History for Olney-Noble Airport, IL


Time Wind
(mph)
Vis
(mi)
Weather Precip (in) Temperature (F) Relative
Humidity
Wind
Chill
(F)
Heat
Index
(F)
Pressure
Air Dwpt altimeter
(in)
sea level
(mb)
Rmks
12:55 pm CDT NE 12.7 G 16.1 10.00 Fair -- 61.0 31.5 33% 59 NA 30.40 M
11:55 am CDT NE 11.5 G 16.1 10.00 Fair -- 59.0 31.5 35% 57 NA 30.41 M
11:35 am CDT NE 8.1 10.00 Fair -- 58.0 31.1 36% 56 NA 30.42 M
10:55 am CDT E 11.5 10.00 Fair -- 58.0 31.8 38% 56 NA 30.43 M
9:55 am CDT NE 11.5 10.00 Fair -- 55.0 33.1 44% 52 NA 30.43 M
8:55 am CDT NE 11.5 10.00 Fair -- 51.0 34.3 53% 47 NA 30.43 M
7:55 am CDT NE 9.2 10.00 Fair -- 47.0 32.5 57% 43 NA 30.42 M
6:55 am CDT NE 6.9 10.00 Fair -- 43.0 32.0 66% 39 NA 30.41 M
5:55 am CDT N 4.6 10.00 Fair -- 40.0 31.8 72% 37 NA 30.39 M
4:55 am CDT NE 5.8 10.00 Fair -- 42.0 31.5 66% 38 NA 30.38 M
3:55 am CDT NE 6.9 10.00 Fair -- 44.0 32.0 64% 40 NA 30.36 M
3:35 am CDT N 6.9 10.00 Fair -- 44.0 32.0 62% 40 NA 30.36 M
2:55 am CDT N 6.9 10.00 Fair -- 45.0 31.6 61% 41 NA 30.35 M
12:55 am CDT NE 8.1 10.00 Fair -- 48.0 30.9 51% 44 NA 30.35 M
11:55 pm CDT NE 11.5 G 19.6 10.00 Fair -- 50.0 30.2 47% 46 NA 30.35 M
11:35 pm CDT NE 11.5 G 19.6 10.00 Fair -- 50.0 32.5 51% 46 NA 30.35 M
10:55 pm CDT NE 10.4 10.00 Fair -- 52.0 33.8 50% 48 NA 30.34 M
9:55 pm CDT NE 8.1 10.00 Fair -- 53.0 36.1 54% 50 NA 30.33 M
8:55 pm CDT N 4.6 10.00 Fair -- 53.0 35.6 51% 52 NA 30.32 M
7:55 pm CDT N 4.6 10.00 Fair -- 55.0 35.1 48% 54 NA 30.30 M
7:35 pm CDT N 4.6 10.00 Fair -- 55.0 35.1 46% 54 NA 30.29 M
6:55 pm CDT N 0.0 10.00 Fair -- 56.0 34.5 44% NA NA 30.28 M
5:55 pm CDT N 0.0 10.00 Overcast -- 56.0 34.7 44% NA NA 30.28 M
4:55 pm CDT N 5.8 10.00 Overcast -- 57.0 32.7 40% 56 NA 30.26 M

Regional Weather Observation


Flora Municipal Airport, IL (KFOA)

Fair
59.0 F

Effingham, Effingham County Memorial Airport, IL (K1H2)

Fair
60.0 F

Salem, Salem-Leckrone Airport, IL (KSLO)

Fair
60.0 F

Fairfield, Fairfield Municipal Airport, IL (KFWC)

Fair
59.0 F

Mattoon / Charleston, Coles County Memorial Airport, IL (KMTO)

Fair
61.0 F

Mount Vernon Airport, IL (KMVN)

Fair
60.0 F
Advertise Here

Advertise Here